CDT,Max TemperatureF,Mean TemperatureF,Min TemperatureF,Max Dew PointF,MeanDew PointF,Min DewpointF,Max Humidity, Mean Humidity, Min Humidity, Max Sea Level PressureIn, Mean Sea Level PressureIn, Min Sea Level PressureIn, Max VisibilityMiles, Mean VisibilityMiles, Min VisibilityMiles, Max Wind SpeedMPH, Mean Wind SpeedMPH, Max Gust SpeedMPH,PrecipitationIn, CloudCover, Events, WindDirDegrees
2012-10-1,66,62,59,59,58,57,94,89,73,29.68,29.66,29.64,10,8,4,16,10,28,0.00,8,Rain,13
2012-10-2,75,62,51,52,48,45,88,57,34,29.85,29.84,29.81,10,10,10,7,5,,0.00,1,,315
2012-10-3,78,70,62,57,54,54,72,51,42,30.05,30.03,30.01,10,10,10,13,9,21,0.00,3,,206
2012-10-4,84,72,60,63,58,55,83,57,37,30.24,30.20,30.14,10,10,10,10,5,,0.00,0,,208
2012-10-5,80,73,66,64,63,61,83,64,54,30.12,30.04,29.95,10,10,10,12,3,,0.00,6,Rain,207
2012-10-6,,,,,,,,,,,,,,,,,,,,,,
2012-10-7,,,,,,,,,,,,,,,,,,,,,,
2012-10-8,64,55,48,43,38,34,82,51,37,30.26,30.22,30.16,10,10,10,6,0,,0.00,2,,-1
2012-10-9,68,56,46,46,44,43,87,58,40,30.16,30.11,30.01,10,10,10,12,6,,0.00,1,,198
2012-10-10,64,58,53,46,37,34,77,45,32,30.27,30.24,30.19,10,10,10,15,9,,0.00,1,,10
2012-10-11,55,53,53,48,44,37,82,69,54,30.28,30.26,30.22,10,10,10,5,1,,0.00,8,,183
2012-10-12,62,58,57,59,57,55,94,91,88,30.32,30.27,30.24,10,9,5,5,4,,0.00,8,Rain,70
2012-10-13,,,,,,,,,,,,,,,,,,,,,,
2012-10-14,,,,,,,,,,,,,,,,,,,,,,
2012-10-15,75,65,55,52,48,45,77,49,34,30.06,30.02,29.97,10,10,10,7,1,,0.00,0,,280
2012-10-16,77,68,59,55,53,52,77,55,41,29.94,29.89,29.80,10,10,10,16,8,24,0.00,4,,209
2012-10-17,78,70,62,61,57,52,68,56,51,29.72,29.65,29.56,10,10,10,22,14,32,0.00,4,,186
2012-10-18,68,60,53,50,43,30,88,55,26,29.80,29.77,29.73,10,10,10,16,7,25,0.00,1,,243
2012-10-19,62,58,53,41,39,37,62,49,42,29.76,29.73,29.70,10,10,10,18,9,31,0.00,4,,260
2012-10-20,,,,,,,,,,,,,,,,,,,,,,
2012-10-21,,,,,,,,,,,,,,,,,,,,,,
2012-10-22,80,68,60,57,54,50,77,59,34,30.10,30.08,30.05,10,10,10,17,10,25,0.00,0,,185
2012-10-23,80,69,60,63,59,54,77,63,48,30.06,30.05,30.00,10,10,10,18,9,28,0.00,2,,196
2012-10-24,82,71,60,64,62,55,83,66,54,30.08,30.05,29.98,10,10,10,14,8,23,0.00,2,,194
2012-10-25,80,72,64,64,62,57,77,62,54,29.99,29.96,29.90,10,10,10,16,11,28,0.00,4,,192
2012-10-26,44,44,44,43,41,39,93,85,81,30.24,30.21,30.17,10,9,5,23,20,34,0.00,8,Rain,19
2012-10-27,,,,,,,,,,,,,,,,,,,,,,
2012-10-28,,,,,,,,,,,,,,,,,,,,,,
2012-10-29,57,47,37,36,31,23,81,54,27,30.28,30.23,30.16,10,10,10,16,11,25,0.00,0,,357
2012-10-30,60,48,37,30,27,25,70,42,25,30.05,30.00,29.91,10,10,10,14,8,,0.00,4,,314
2012-10-31,62,55,48,32,28,25,54,35,25,30.00,29.98,29.94,10,10,10,12,6,,0.00,2,,341